FW3031 Weather Reports


time (UTC)temp
C
wind
direction
speed
KPH
gust
KPH
rain 1hr
cm
rain 24hr
cm
rain mn
cm
humidity
%
barometer
mb
20260504035519 30 190 0.0 6.4 0.00 0.00 0.00 36 1012.4
20260504035120 30 190 0.0 6.4 0.00 0.00 0.00 36 1012.3
20260504034620 30 0 0.0 3.2 0.00 0.00 0.00 36 1011.7
20260504034517 30 190 0.0 0.0 0.00 0.00 0.00 36 1012.3
20260504034016 30 190 0.0 3.2 0.00 0.00 0.00 36 1012.1
20260504033518 30 190 0.0 6.4 0.00 0.00 0.00 35 1012.1
20260504033057 30 0 0.0 6.4 0.00 0.00 0.00 35 1011.4
20260504033015 30 190 0.0 6.4 0.00 0.00 0.00 35 1011.9
20260504032518 30 190 0.0 6.4 0.00 0.00 0.00 35 1011.8
20260504032015 30 190 0.0 6.4 0.00 0.00 0.00 36 1011.7
20260504031558 30 0 0.0 0.0 0.00 0.00 0.00 35 1011.1
20260504031516 30 190 0.0 0.0 0.00 0.00 0.00 36 1011.5
20260504031016 30 190 0.0 1.6 0.00 0.00 0.00 36 1011.4
20260504030517 30 190 0.0 1.6 0.00 0.00 0.00 36 1011.3
20260504030059 30 0 0.0 0.0 0.00 0.00 0.00 35 1010.6
20260504030015 30 190 0.0 0.0 0.00 0.00 0.00 35 1011.1
20260504025515 30 190 0.0 3.2 0.00 0.00 0.00 35 1010.9
20260504025015 30 190 0.0 3.2 0.00 0.00 0.00 35 1010.8
20260504024558 31 0 0.0 4.8 0.00 0.00 0.00 34 1010.2
20260504024514 31 190 0.0 4.8 0.00 0.00 0.00 35 1010.7
20260504024014 31 190 0.0 0.0 0.00 0.00 0.00 35 1010.6
20260504023514 31 190 0.0 0.0 0.00 0.00 0.00 34 1010.4
20260504023059 31 0 0.0 0.0 0.00 0.00 0.00 33 1009.8
20260504023014 31 190 0.0 0.0 0.00 0.00 0.00 34 1010.2
20260504022514 31 190 0.0 4.8 0.00 0.00 0.00 33 1010.0
20260504022014 31 190 0.0 4.8 0.00 0.00 0.00 33 1009.7
20260504021558 31 0 0.0 3.2 0.00 0.00 0.00 32 1009.2
20260504021516 31 190 0.0 3.2 0.00 0.00 0.00 33 1009.6
20260504021013 32 190 0.0 3.2 0.00 0.00 0.00 33 1009.5
20260504020513 32 190 0.0 3.2 0.00 0.00 0.00 33 1009.3
20260504020129 32 0 0.0 6.4 0.00 0.00 0.00 32 1008.9
20260504020015 32 190 0.0 3.2 0.00 0.00 0.00 32 1009.1
20260504015513 32 190 0.0 6.4 0.00 0.00 0.00 32 1009.0
20260504015013 32 190 1.6 4.8 0.00 0.00 0.00 31 1008.9
20260504014602 32 190 0.0 4.8 0.00 0.00 0.00 31 1008.6
20260504014513 32 190 0.0 4.8 0.00 0.00 0.00 32 1008.8
20260504014013 32 190 0.0 4.8 0.00 0.00 0.00 32 1008.7
20260504013511 32 190 0.0 8.0 0.00 0.00 0.00 32 1008.8
20260504013136 32 0 1.6 8.0 0.00 0.00 0.00 31 1008.4
20260504013017 32 190 1.6 8.0 0.00 0.00 0.00 32 1008.7
20260504012511 32 190 3.2 9.7 0.00 0.00 0.00 32 1008.6
20260504012011 32 190 1.6 11.3 0.00 0.00 0.00 32 1008.4
20260504011559 32 190 4.8 12.9 0.00 0.00 0.00 31 1008.0
20260504011511 32 190 3.2 12.9 0.00 0.00 0.00 32 1008.4
20260504011011 32 190 6.4 12.9 0.00 0.00 0.00 32 1008.3
20260504010510 33 190 3.2 12.9 0.00 0.00 0.00 32 1008.2
20260504010011 33 190 6.4 12.9 0.00 0.00 0.00 32 1008.0
20260504005510 33 190 4.8 12.9 0.00 0.00 0.00 32 1007.9
20260504005010 33 190 3.2 12.9 0.00 0.00 0.00 32 1007.8
20260504004600 33 190 6.4 17.7 0.00 0.00 0.00 31 1007.5
20260504004510 33 190 6.4 17.7 0.00 0.00 0.00 32 1007.7
20260504004010 33 190 6.4 20.9 0.00 0.00 0.00 32 1007.7
20260504003509 33 190 8.0 22.5 0.00 0.00 0.00 32 1007.6
20260504003058 33 190 11.3 22.5 0.00 0.00 0.00 31 1007.3
20260504003009 33 190 9.7 22.5 0.00 0.00 0.00 32 1007.5
20260504002509 33 190 6.4 22.5 0.00 0.00 0.00 32 1007.3
20260504002009 33 190 6.4 22.5 0.00 0.00 0.00 31 1007.3
20260504001602 34 190 8.0 22.5 0.00 0.00 0.00 29 1007.0
20260504001509 34 190 9.7 22.5 0.00 0.00 0.00 30 1007.2
20260504001009 35 190 8.0 19.3 0.00 0.00 0.00 28 1007.1
20260504000509 35 190 3.2 9.7 0.00 0.00 0.00 27 1007.0
20260504000111 35 190 1.6 11.3 0.00 0.00 0.00 26 1006.9
20260504000024 35 190 1.6 9.7 0.00 0.00 0.00 27 1007.0
20260503235510 35 190 3.2 11.3 0.00 0.00 0.00 27 1007.0
20260503235008 35 190 4.8 11.3 0.00 0.00 0.00 26 1007.0
20260503234607 35 190 4.8 17.7 0.00 0.00 0.00 26 1006.9
20260503234508 35 190 3.2 11.3 0.00 0.00 0.00 26 1007.0
20260503234008 35 190 3.2 17.7 0.00 0.00 0.00 26 1007.0
20260503233507 35 190 6.4 17.7 0.00 0.00 0.00 26 1007.0
20260503233100 35 190 8.0 17.7 0.00 0.00 0.00 25 1006.8
20260503233009 35 190 8.0 17.7 0.00 0.00 0.00 26 1007.0
20260503232506 35 190 4.8 14.5 0.00 0.00 0.00 26 1006.9
20260503232006 35 190 4.8 16.1 0.00 0.00 0.00 26 1006.9
20260503231600 35 190 9.7 16.1 0.00 0.00 0.00 25 1006.7
20260503231506 35 190 8.0 16.1 0.00 0.00 0.00 25 1006.8
20260503231006 36 190 1.6 14.5 0.00 0.00 0.00 25 1006.8
20260503230506 36 190 6.4 16.1 0.00 0.00 0.00 25 1006.8
20260503230104 36 190 4.8 20.9 0.00 0.00 0.00 24 1006.7
20260503230008 36 190 4.8 20.9 0.00 0.00 0.00 25 1006.8
20260503225508 36 190 6.4 24.1 0.00 0.00 0.00 24 1006.8
20260503225009 37 190 6.4 24.1 0.00 0.00 0.00 24 1006.7
20260503224611 37 190 8.0 19.3 0.00 0.00 0.00 24 1006.6
20260503224504 37 190 6.4 19.3 0.00 0.00 0.00 24 1006.6
20260503224004 37 190 11.3 19.3 0.00 0.00 0.00 24 1006.7
20260503223505 37 190 8.0 14.5 0.00 0.00 0.00 24 1006.6
20260503223100 37 190 0.0 12.9 0.00 0.00 0.00 23 1006.7
20260503223002 37 190 0.0 9.7 0.00 0.00 0.00 24 1006.8
20260503222502 36 190 0.0 12.9 0.00 0.00 0.00 25 1006.8
20260503222001 37 190 3.2 17.7 0.00 0.00 0.00 25 1006.8
20260503221606 37 190 6.4 17.7 0.00 0.00 0.00 24 1006.8
20260503221501 37 190 6.4 17.7 0.00 0.00 0.00 25 1006.9
20260503221002 37 190 1.6 17.7 0.00 0.00 0.00 25 1006.9
20260503220602 37 190 1.6 17.7 0.00 0.00 0.00 25 1006.9
20260503220100 37 190 3.2 11.3 0.00 0.00 0.00 25 1007.0
20260503220058 37 190 3.2 11.3 0.00 0.00 0.00 25 1006.8
20260503215600 37 190 4.8 9.7 0.00 0.00 0.00 26 1007.0
20260503215059 37 190 0.0 14.5 0.00 0.00 0.00 26 1007.1
20260503214559 37 190 4.8 14.5 0.00 0.00 0.00 25 1007.1
20260503214057 37 190 0.0 9.7 0.00 0.00 0.00 26 1007.2
20260503213555 37 190 1.6 9.7 0.00 0.00 0.00 26 1007.2
20260503213102 37 190 4.8 8.0 0.00 0.00 0.00 26 1007.1
20260503213057 37 190 3.2 8.0 0.00 0.00 0.00 26 1007.3
20260503212554 37 190 1.6 6.4 0.00 0.00 0.00 26 1007.5
20260503212051 36 190 0.0 12.9 0.00 0.00 0.00 27 1007.5
20260503211604 36 190 6.4 14.5 0.00 0.00 0.00 27 1007.7
20260503211600 36 190 4.8 14.5 0.00 0.00 0.00 26 1007.5
20260503211050 36 190 1.6 12.9 0.00 0.00 0.00 27 1007.7
20260503210549 36 190 1.6 17.7 0.00 0.00 0.00 27 1007.9
20260503210058 36 190 3.2 17.7 0.00 0.00 0.00 27 1007.8
20260503210048 36 190 0.0 17.7 0.00 0.00 0.00 27 1008.0
20260503205546 36 190 1.6 14.5 0.00 0.00 0.00 28 1008.0
20260503205045 36 190 3.2 14.5 0.00 0.00 0.00 28 1008.2
20260503204620 36 0 1.6 11.3 0.00 0.00 0.00 28 1008.2
20260503204545 36 190 1.6 11.3 0.00 0.00 0.00 28 1008.3
20260503204044 36 190 3.2 11.3 0.00 0.00 0.00 28 1008.5
20260503203541 36 190 0.0 14.5 0.00 0.00 0.00 29 1008.6
20260503203102 36 190 6.4 14.5 0.00 0.00 0.00 28 1008.7
20260503203057 36 190 3.2 14.5 0.00 0.00 0.00 28 1008.9
20260503202542 36 190 1.6 6.4 0.00 0.00 0.00 28 1009.0
20260503202038 36 190 0.0 11.3 0.00 0.00 0.00 29 1009.1
20260503201559 36 190 3.2 8.0 0.00 0.00 0.00 28 1008.8
20260503201538 36 190 3.2 8.0 0.00 0.00 0.00 29 1009.1
20260503201034 36 190 0.0 9.7 0.00 0.00 0.00 29 1009.2
20260503200533 36 190 1.6 9.7 0.00 0.00 0.00 29 1009.4
20260503200100 35 0 3.2 11.3 0.00 0.00 0.00 29 1009.2
20260503200035 35 190 1.6 8.0 0.00 0.00 0.00 29 1009.5
20260503195531 35 190 1.6 11.3 0.00 0.00 0.00 29 1009.6
20260503195030 35 190 1.6 12.9 0.00 0.00 0.00 29 1009.8
20260503194609 35 190 6.4 12.9 0.00 0.00 0.00 29 1009.6
20260503194529 35 190 6.4 12.9 0.00 0.00 0.00 29 1010.0
20260503194028 35 190 0.0 14.5 0.00 0.00 0.00 30 1010.1
20260503193527 35 190 4.8 14.5 0.00 0.00 0.00 30 1010.2
20260503193118 35 190 3.2 14.5 0.00 0.00 0.00 30 1010.0
20260503193026 35 190 1.6 14.5 0.00 0.00 0.00 30 1010.3
20260503192525 35 190 4.8 11.3 0.00 0.00 0.00 30 1010.4
20260503192023 35 190 1.6 9.7 0.00 0.00 0.00 31 1010.5
20260503191616 35 0 1.6 14.5 0.00 0.00 0.00 30 1010.5
20260503191521 35 190 1.6 14.5 0.00 0.00 0.00 31 1010.6
20260503191020 35 190 3.2 14.5 0.00 0.00 0.00 30 1010.8
20260503190524 35 190 4.8 11.3 0.00 0.00 0.00 31 1010.9
20260503190058 35 0 1.6 9.7 0.00 0.00 0.00 31 1010.7
20260503190023 35 190 0.0 8.0 0.00 0.00 0.00 31 1010.9
20260503185517 35 190 1.6 12.9 0.00 0.00 0.00 31 1011.1
20260503185016 34 190 3.2 16.1 0.00 0.00 0.00 32 1011.2
20260503184612 34 190 3.2 12.9 0.00 0.00 0.00 32 1011.1
20260503184515 34 190 4.8 12.9 0.00 0.00 0.00 32 1011.3
20260503184015 33 190 0.0 8.0 0.00 0.00 0.00 32 1011.4
20260503183514 34 190 1.6 14.5 0.00 0.00 0.00 32 1011.6
20260503183101 34 0 4.8 16.1 0.00 0.00 0.00 32 1011.4
20260503183012 33 190 3.2 16.1 0.00 0.00 0.00 33 1011.8
20260503182515 34 190 6.4 16.1 0.00 0.00 0.00 32 1011.9
20260503182010 34 190 6.4 12.9 0.00 0.00 0.00 33 1011.9
20260503181559 34 190 1.6 11.3 0.00 0.00 0.00 32 1011.6
20260503181509 34 190 1.6 11.3 0.00 0.00 0.00 33 1012.0
20260503181010 33 190 4.8 11.3 0.00 0.00 0.00 33 1012.2
20260503180508 33 190 3.2 11.3 0.00 0.00 0.00 34 1012.2
20260503180016 33 190 3.2 17.7 0.00 0.00 0.00 35 1012.3
20260503175506 33 190 6.4 17.7 0.00 0.00 0.00 34 1012.3
20260503175005 33 190 0.0 12.9 0.00 0.00 0.00 35 1012.3
20260503174604 33 190 4.8 12.9 0.00 0.00 0.00 35 1012.1
20260503174513 33 190 3.2 12.9 0.00 0.00 0.00 35 1012.5
20260503174007 33 190 0.0 9.7 0.00 0.00 0.00 36 1012.6
20260503173502 33 190 1.6 11.3 0.00 0.00 0.00 36 1012.8
20260503173105 33 190 3.2 14.5 0.00 0.00 0.00 36 1012.5
20260503173001 32 190 3.2 14.5 0.00 0.00 0.00 37 1012.9
20260503172600 32 190 1.6 14.5 0.00 0.00 0.00 36 1013.0
20260503172100 32 190 6.4 17.7 0.00 0.00 0.00 37 1013.1
20260503171601 32 190 0.0 9.7 0.00 0.00 0.00 37 1013.1
20260503171557 32 190 1.6 11.3 0.00 0.00 0.00 36 1012.8
20260503171058 32 190 1.6 11.3 0.00 0.00 0.00 37 1013.3
20260503170558 32 190 0.0 9.7 0.00 0.00 0.00 37 1013.5
20260503170117 32 190 1.6 12.9 0.00 0.00 0.00 37 1013.1
20260503160108 31 190 1.6 17.7 0.00 0.00 0.00 39 1014.0
20260503150536 28 190 0.0 1.6 0.00 0.00 0.00 32 1014.8
20260503131017 22 190 0.0 1.6 0.00 0.00 0.00 47 1014.2
20260503130519 22 190 0.0 3.2 0.00 0.00 0.00 47 1014.1
20260503110555 23 190 0.0 1.6 0.00 0.00 0.00 44 1012.6
20260503100107 25 0 0.0 0.0 0.00 0.00 0.00 40 1011.4
20260503081600 25 0 0.0 0.0 0.00 0.00 0.00 43 1011.5
20260503081536 25 190 0.0 0.0 0.00 0.00 0.00 43 1012.4
20260503081036 25 190 0.0 0.0 0.00 0.00 0.00 44 1012.4
20260503080539 25 190 0.0 0.0 0.00 0.00 0.00 43 1012.4
20260503080105 25 0 0.0 0.0 0.00 0.00 0.00 43 1011.7
20260503072532 25 190 0.0 0.0 0.00 0.00 0.00 45 1012.4
20260503072032 25 190 0.0 0.0 0.00 0.00 0.00 44 1012.3
20260503071612 25 0 0.0 0.0 0.00 0.00 0.00 43 1011.4
20260503071531 25 190 0.0 0.0 0.00 0.00 0.00 44 1012.3
20260503071030 25 190 0.0 0.0 0.00 0.00 0.00 43 1012.3
20260503070530 25 190 0.0 0.0 0.00 0.00 0.00 43 1012.3
20260503055026 27 190 0.0 0.0 0.00 0.00 0.00 40 1011.5
20260503054611 27 0 0.0 4.8 0.00 0.00 0.00 39 1010.7
20260503054526 27 190 0.0 4.8 0.00 0.00 0.00 39 1011.4
20260503054025 27 190 0.0 4.8 0.00 0.00 0.00 39 1011.4
20260503053525 27 190 0.0 1.6 0.00 0.00 0.00 39 1011.3
20260503053058 27 0 0.0 0.0 0.00 0.00 0.00 39 1010.6
20260503053025 27 190 0.0 0.0 0.00 0.00 0.00 39 1011.3
20260503052525 27 190 0.0 0.0 0.00 0.00 0.00 39 1011.3
20260503052025 27 190 0.0 3.2 0.00 0.00 0.00 39 1011.2
20260503051558 27 0 0.0 4.8 0.00 0.00 0.00 38 1010.4
20260503051527 27 190 0.0 4.8 0.00 0.00 0.00 38 1011.1
20260503051024 27 190 0.0 4.8 0.00 0.00 0.00 38 1011.0
20260503050523 27 190 0.0 4.8 0.00 0.00 0.00 38 1010.9
20260503050100 27 0 1.6 8.0 0.00 0.00 0.00 38 1010.1
20260503050024 27 190 0.0 8.0 0.00 0.00 0.00 38 1010.8
20260503045524 27 190 1.6 8.0 0.00 0.00 0.00 38 1010.6
20260503045023 27 190 3.2 8.0 0.00 0.00 0.00 38 1010.6
20260503044559 28 190 0.0 4.8 0.00 0.00 0.00 38 1009.9
20260503044527 28 190 0.0 4.8 0.00 0.00 0.00 38 1010.6
20260503044022 28 190 0.0 8.0 0.00 0.00 0.00 38 1010.7
20260503043522 28 190 0.0 8.0 0.00 0.00 0.00 38 1010.7
20260503043059 28 190 0.0 9.7 0.00 0.00 0.00 37 1009.9
20260503043022 28 190 0.0 8.0 0.00 0.00 0.00 38 1010.6
20260503042521 28 190 1.6 9.7 0.00 0.00 0.00 38 1010.6
20260503042022 28 190 0.0 9.7 0.00 0.00 0.00 38 1010.4
20260503041558 28 190 1.6 9.7 0.00 0.00 0.00 37 1009.7
20260503041521 28 190 0.0 9.7 0.00 0.00 0.00 38 1010.4
20260503041020 28 190 1.6 12.9 0.00 0.00 0.00 38 1010.3
20260503040620 28 190 3.2 12.9 0.00 0.00 0.00 37 1010.2
20260503040058 28 190 4.8 14.5 0.00 0.00 0.00 37 1009.5
20260503040026 28 190 4.8 11.3 0.00 0.00 0.00 37 1010.1